Valley City, ND

2:02 AM CST on December 16, 2019 (GMT -0600)
Valley City

Weather History for KBAC - October, 2019

Change the Weather History Date:

Friday, October 18, 2019

  Actual Average (WUND) Record (WUND)
Temperature  
Mean Temperature 50 °F -  
Max Temperature 59 °F - - (-1)
Min Temperature 42 °F - - (-1)
Degree Days  
Heating Degree Days 14    
Moisture  
Dew Point 45 °F    
Average Humidity 83    
Maximum Humidity 100    
Minimum Humidity 67    
Precipitation  
Precipitation 0.00 in - - ()
Sea Level Pressure  
Sea Level Pressure 29.47 in    
Wind  
Wind Speed 13 mph (SSW)    
Max Wind Speed 18 mph    
Max Gust Speed 29 mph    
Visibility 10 miles    
Events      
Averages and records for this station are not official NWS values.
T = Trace of Precipitation, MM = Missing Value Source: NWS Daily Summary

Daily Weather History Graph

Daily Weather History Graph

Search for Another Location

Airport or City:

Astronomy

Oct. 18, 2019 Rise Set
Actual Time 7:54 AM CDT 6:39 PM CDT
Civil Twilight 7:23 AM CDT 7:10 PM CDT
Nautical Twilight 6:47 AM CDT 7:45 PM CDT
Astronomical Twilight 6:12 AM CDT 8:20 PM CDT
Moon 9:42 PM CDT (10/18) 12:43 PM CDT (10/18)
Length of Visible Light 11h 47m
Length of Day
10h 45m
Waning Gibbous, 78% of the Moon is Illuminated
Oct 18
Waning Gibbous
Oct 21
Last Quarter
Oct 27
New
Nov 4
First Quarter
Nov 12
Full

Hourly Weather History & Observations

Time (CDT) Temp. Windchill Dew Point Humidity Pressure Visibility Wind Dir Wind Speed Gust Speed Precip Events Conditions
12:15 AM 48.2 °F - 42.8 °F 82% 29.56 in 10.0 mi SE 15.0 mph - N/A   Clear
12:35 AM 48.2 °F - 42.8 °F 82% 29.56 in 10.0 mi SE 17.3 mph 26.5 mph N/A   Clear
12:55 AM 48.2 °F - 42.8 °F 82% 29.54 in 10.0 mi SE 18.4 mph 25.3 mph N/A   Clear
1:15 AM 48.2 °F - 42.8 °F 82% 29.53 in 10.0 mi SE 16.1 mph 26.5 mph N/A   Clear
1:35 AM 48.2 °F - 42.8 °F 82% 29.53 in 10.0 mi SE 12.7 mph 26.5 mph N/A   Clear
1:55 AM 46.4 °F 40.1 °F 42.8 °F 87% 29.52 in 10.0 mi SSE 15.0 mph 26.5 mph N/A   Clear
2:15 AM 46.4 °F 39.5 °F 42.8 °F 87% 29.51 in 10.0 mi SSE 17.3 mph 24.2 mph N/A   Clear
2:35 AM 46.4 °F 39.8 °F 42.8 °F 87% 29.50 in 10.0 mi SSE 16.1 mph 24.2 mph N/A   Clear
2:55 AM 46.4 °F 39.8 °F 42.8 °F 87% 29.49 in 10.0 mi SSE 16.1 mph 23.0 mph N/A   Clear
3:15 AM 46.4 °F 39.2 °F 42.8 °F 87% 29.48 in 10.0 mi SSE 18.4 mph 28.8 mph N/A   Clear
3:35 AM 46.4 °F 39.8 °F 42.8 °F 87% 29.48 in 10.0 mi SSE 16.1 mph 23.0 mph N/A   Clear
3:55 AM 46.4 °F 39.5 °F 42.8 °F 87% 29.47 in 10.0 mi SSE 17.3 mph 24.2 mph N/A   Clear
4:15 AM 46.4 °F 39.8 °F 42.8 °F 87% 29.47 in 10.0 mi SSE 16.1 mph - N/A   Clear
4:35 AM 44.6 °F 37.8 °F 42.8 °F 93% 29.46 in 10.0 mi SSE 15.0 mph - N/A   Clear
4:55 AM 44.6 °F 38.4 °F 44.6 °F 100% 29.46 in 10.0 mi SSE 12.7 mph 19.6 mph N/A   Clear
5:15 AM 44.6 °F 38.4 °F 44.6 °F 100% 29.47 in 10.0 mi SSE 12.7 mph - N/A   Clear
5:35 AM 44.6 °F 38.8 °F 44.6 °F 100% 29.47 in 10.0 mi SSE 11.5 mph 17.3 mph N/A   Clear
5:55 AM 44.6 °F 37.8 °F 44.6 °F 100% 29.46 in 10.0 mi SSE 15.0 mph - N/A   Clear
6:15 AM 44.6 °F 37.8 °F 44.6 °F 100% 29.45 in 10.0 mi SSE 15.0 mph - N/A   Clear
6:35 AM 44.6 °F 38.1 °F 44.6 °F 100% 29.45 in 10.0 mi SSE 13.8 mph - N/A   Clear
6:55 AM 44.6 °F 38.4 °F 44.6 °F 100% 29.45 in 10.0 mi SSE 12.7 mph - N/A   Clear
7:15 AM 44.6 °F 38.8 °F 44.6 °F 100% 29.44 in 10.0 mi SSE 11.5 mph - N/A   Clear
7:35 AM 42.8 °F 35.8 °F 42.8 °F 100% 29.44 in 10.0 mi SSE 13.8 mph - N/A   Clear
7:55 AM 42.8 °F 35.1 °F 42.8 °F 100% 29.44 in 10.0 mi SSE 16.1 mph - N/A   Clear
8:15 AM 42.8 °F 36.2 °F 42.8 °F 100% 29.43 in 10.0 mi SSE 12.7 mph - N/A   Clear
8:35 AM 42.8 °F 35.8 °F 42.8 °F 100% 29.43 in 10.0 mi SSE 13.8 mph - N/A   Clear
8:55 AM 42.8 °F 36.6 °F 42.8 °F 100% 29.43 in 10.0 mi SSE 11.5 mph 19.6 mph N/A   Clear
9:15 AM 44.6 °F 38.8 °F 44.6 °F 100% 29.44 in 10.0 mi SSE 11.5 mph - N/A   Clear
9:35 AM 46.4 °F 42.4 °F 46.4 °F 100% 29.43 in 10.0 mi SSE 8.1 mph - N/A   Clear
9:55 AM 46.4 °F 41.9 °F 46.4 °F 100% 29.43 in 10.0 mi SSE 9.2 mph 15.0 mph N/A   Clear
10:15 AM 48.2 °F - 46.4 °F 93% 29.43 in 10.0 mi South 8.1 mph - N/A   Clear
10:35 AM 50.0 °F - 46.4 °F 87% 29.43 in 10.0 mi SSE 10.4 mph - N/A   Clear
10:55 AM 50.0 °F - 46.4 °F 87% 29.42 in 10.0 mi South 13.8 mph - N/A   Clear
11:15 AM 51.8 °F - 46.4 °F 82% 29.42 in 10.0 mi South 12.7 mph - N/A   Clear
11:35 AM 53.6 °F - 48.2 °F 82% 29.41 in 10.0 mi South 12.7 mph - N/A   Clear
11:55 AM 55.4 °F - 48.2 °F 77% 29.41 in 10.0 mi South 12.7 mph - N/A   Clear
12:15 PM 55.4 °F - 46.4 °F 72% 29.41 in 10.0 mi SSW 13.8 mph - N/A   Clear
12:35 PM 55.4 °F - 48.2 °F 77% 29.41 in 10.0 mi SSW 10.4 mph 17.3 mph N/A   Clear
12:55 PM 57.2 °F - 48.2 °F 72% 29.41 in 10.0 mi SSW 10.4 mph - N/A   Clear
1:15 PM 57.2 °F - 48.2 °F 72% 29.41 in 10.0 mi SW 9.2 mph - N/A   Partly Cloudy
1:35 PM 57.2 °F - 48.2 °F 72% 29.40 in 10.0 mi SSW 8.1 mph - N/A   Clear
1:55 PM 57.2 °F - 48.2 °F 72% 29.40 in 10.0 mi SSW 6.9 mph 12.7 mph N/A   Clear
2:15 PM 59.0 °F - 48.2 °F 67% 29.39 in 10.0 mi South 9.2 mph - N/A   Clear
2:35 PM 59.0 °F - 48.2 °F 67% 29.40 in 10.0 mi SW 10.4 mph - N/A   Clear
2:55 PM 59.0 °F - 48.2 °F 67% 29.40 in 10.0 mi SSW 9.2 mph - N/A   Clear
3:15 PM 59.0 °F - 48.2 °F 67% 29.41 in 10.0 mi SW 9.2 mph - N/A   Clear
3:35 PM 59.0 °F - 48.2 °F 67% 29.41 in 10.0 mi WSW 12.7 mph - N/A   Partly Cloudy
3:55 PM 59.0 °F - 48.2 °F 67% 29.43 in 10.0 mi WSW 10.4 mph - N/A   Scattered Clouds
4:15 PM 57.2 °F - 48.2 °F 72% 29.43 in 10.0 mi West 13.8 mph - N/A   Partly Cloudy
4:35 PM 57.2 °F - 48.2 °F 72% 29.44 in 10.0 mi WNW 12.7 mph - N/A   Clear
4:55 PM 57.2 °F - 46.4 °F 67% 29.45 in 10.0 mi WNW 9.2 mph 18.4 mph N/A   Clear
5:15 PM 55.4 °F - 46.4 °F 72% 29.46 in 10.0 mi West 12.7 mph - N/A   Clear
5:35 PM 53.6 °F - 48.2 °F 82% 29.46 in 10.0 mi WNW 8.1 mph - N/A   Clear
5:55 PM 53.6 °F - 48.2 °F 82% 29.47 in 10.0 mi WNW 11.5 mph - N/A   Clear
6:15 PM 53.6 °F - 46.4 °F 77% 29.48 in 10.0 mi WNW 9.2 mph - N/A   Clear
6:35 PM 51.8 °F - 46.4 °F 82% 29.49 in 10.0 mi West 5.8 mph - N/A   Clear
6:55 PM 50.0 °F - 44.6 °F 82% 29.49 in 10.0 mi West 5.8 mph - N/A   Clear
7:15 PM 48.2 °F - 42.8 °F 82% 29.49 in 10.0 mi WNW 6.9 mph - N/A   Clear
7:35 PM 48.2 °F - 42.8 °F 82% 29.49 in 10.0 mi West 6.9 mph - N/A   Clear
7:55 PM 46.4 °F 43.5 °F 42.8 °F 87% 29.49 in 10.0 mi West 5.8 mph - N/A   Clear
8:15 PM 48.2 °F - 42.8 °F 82% 29.50 in 10.0 mi WNW 10.4 mph - N/A   Mostly Cloudy
8:35 PM 51.8 °F - 42.8 °F 71% 29.51 in 10.0 mi West 9.2 mph - N/A   Overcast
8:55 PM 50.0 °F - 42.8 °F 76% 29.53 in 10.0 mi West 13.8 mph - N/A   Overcast
9:15 PM 50.0 °F - 42.8 °F 76% 29.54 in 10.0 mi West 11.5 mph 17.3 mph N/A   Overcast
9:35 PM 50.0 °F - 41.0 °F 71% 29.54 in 10.0 mi West 11.5 mph - N/A   Overcast
10:15 PM 50.0 °F - 41.0 °F 71% 29.54 in 10.0 mi West 11.5 mph - N/A   Overcast
10:35 PM 50.0 °F - 41.0 °F 71% 29.55 in 10.0 mi West 13.8 mph - N/A   Overcast
10:55 PM 48.2 °F - 41.0 °F 76% 29.55 in 10.0 mi WSW 10.4 mph - N/A   Overcast
11:15 PM 48.2 °F - 41.0 °F 76% 29.55 in 10.0 mi WSW 12.7 mph - N/A   Scattered Clouds
11:35 PM 48.2 °F - 41.0 °F 76% 29.55 in 10.0 mi WSW 12.7 mph - N/A   Clear
11:55 PM 48.2 °F - 41.0 °F 76% 29.56 in 10.0 mi WSW 13.8 mph - N/A   Clear